Olympia, WA

10:12 AM PST on February 20, 2018 (GMT -0800)
Olympia

Weather History for KOLM - April, 2013

Change the Weather History Date:

Monday, April 15, 2013

  Actual Average Record
Temperature  
Mean Temperature 44 °F 48 °F  
Max Temperature 56 °F 59 °F 76 °F (1951)
Min Temperature 31 °F 37 °F 26 °F (1967)
Degree Days  
Heating Degree Days 21 17  
Month to date heating degree days 268 266  
Since 1 July heating degree days 4564 4624  
Cooling Degree Days 0 0  
Month to date cooling degree days 0 0  
Year to date cooling degree days 0 0  
Moisture  
Dew Point 36 °F    
Average Humidity 73    
Maximum Humidity 100    
Minimum Humidity 46    
Precipitation  
Precipitation 0.06 in 0.12 in 0.73 in (1996)
Month to date precipitation 4.12 1.97  
Year to date precipitation 15.95 20.37  
Sea Level Pressure  
Sea Level Pressure 30.03 in    
Wind  
Wind Speed 3 mph (North)    
Max Wind Speed 20 mph    
Max Gust Speed 28 mph    
Visibility 4 miles    
Events Fog , Rain    
T = Trace of Precipitation, MM = Missing Value Source: NWS Daily Summary

Daily Weather History Graph

Daily Weather History Graph

Search for Another Location

Airport or City:

Trip Planner

Search our weather history database for the weather conditions in past years. The results will help you decide how hot, cold, wet, or windy it might be!

Date:

Astronomy

Apr. 15, 2013 Rise Set
Actual Time 6:23 AM PDT 8:00 PM PDT
Civil Twilight 5:51 AM PDT 8:32 PM PDT
Nautical Twilight 5:12 AM PDT 9:11 PM PDT
Astronomical Twilight 4:30 AM PDT 9:54 PM PDT
Moon 9:42 AM PDT (4/15) 12:28 AM PDT (4/15)
Length of Visible Light 14h 41m
Length of Day
13h 37m
Waxing Crescent, 25% of the Moon is Illuminated
Apr 15
Waxing Crescent
Apr 18
First Quarter
Apr 25
Full
May 2
Last Quarter
May 9
New

Hourly Weather History & Observations

Time (PDT) Temp. Windchill Dew Point Humidity Pressure Visibility Wind Dir Wind Speed Gust Speed Precip Events Conditions
12:12 AM 36.0 °F - 35.1 °F 97% 29.96 in 1.8 mi Calm Calm - N/A   Overcast
12:24 AM 36.0 °F - 35.1 °F 97% 29.96 in 3.0 mi Calm Calm - N/A   Mostly Cloudy
12:39 AM 35.1 °F - 35.1 °F 100% 29.96 in 1.8 mi Calm Calm - N/A   Partly Cloudy
12:44 AM 36.0 °F - 35.1 °F 97% 29.96 in 0.8 mi Calm Calm - N/A   Partly Cloudy
12:46 AM 36.0 °F - 35.1 °F 97% 29.96 in 0.8 mi Calm Calm - N/A   Mist
12:54 AM 36.0 °F - 35.1 °F 97% 29.97 in 0.5 mi Calm Calm - N/A Fog Fog
1:04 AM 36.0 °F - 35.1 °F 97% 29.96 in 0.2 mi Calm Calm - N/A Fog Fog
1:41 AM 33.1 °F - 33.1 °F 100% 29.96 in 1.0 mi Calm Calm - N/A   Mist
1:54 AM 34.0 °F - 33.1 °F 96% 29.96 in 1.8 mi Calm Calm - N/A   Scattered Clouds
2:02 AM 33.1 °F - 32.0 °F 96% 29.96 in 1.0 mi Calm Calm - N/A   Mist
2:09 AM 30.9 °F - 30.9 °F 100% 29.95 in 0.5 mi Calm Calm - N/A Fog Light Freezing Fog
2:18 AM 32.0 °F 28.7 °F 30.9 °F 96% 29.96 in 0.5 mi NNE 3.5 mph - N/A Fog Fog
2:21 AM 30.9 °F - 30.9 °F 100% 29.96 in 0.2 mi Calm Calm - N/A Fog Light Freezing Fog
2:39 AM 32.0 °F - 30.9 °F 96% 29.96 in 0.5 mi Calm Calm - N/A Fog Fog
2:46 AM 32.0 °F - 30.9 °F 96% 29.96 in 0.2 mi Calm Calm - N/A Fog Fog
2:54 AM 30.9 °F - 30.9 °F 100% 29.96 in 0.2 mi Calm Calm - N/A Fog Light Freezing Fog
3:13 AM 30.9 °F - 30.9 °F 100% 29.96 in 0.5 mi Calm Calm - N/A Fog Light Freezing Fog
3:32 AM 32.0 °F - 32.0 °F 100% 29.96 in 0.2 mi Calm Calm - N/A Fog Fog
3:54 AM 30.9 °F - 30.9 °F 100% 29.97 in 0.2 mi Calm Calm - N/A Fog Light Freezing Fog
4:54 AM 32.0 °F - 32.0 °F 100% 29.97 in 0.2 mi Calm Calm - N/A Fog Fog
5:54 AM 34.0 °F - 34.0 °F 100% 29.98 in 0.2 mi Calm Calm - N/A Fog Fog
6:54 AM 34.0 °F - 34.0 °F 100% 29.99 in 0.2 mi Calm Calm - N/A Fog Fog
7:45 AM 36.0 °F - 36.0 °F 100% 30.00 in 0.5 mi Calm Calm - N/A Fog Fog
7:54 AM 37.0 °F - 37.0 °F 100% 30.01 in 0.5 mi Calm Calm - N/A Fog Fog
8:33 AM 37.9 °F - 37.9 °F 100% 30.02 in 1.0 mi Calm Calm - N/A   Overcast
8:54 AM 37.9 °F 35.5 °F 37.9 °F 100% 30.03 in 2.0 mi NE 3.5 mph - N/A   Overcast
9:54 AM 39.0 °F - 39.0 °F 100% 30.04 in 2.0 mi Calm Calm - N/A   Overcast
10:54 AM 41.0 °F 38.0 °F 39.0 °F 93% 30.05 in 2.0 mi NNW 4.6 mph - N/A   Overcast
10:58 AM 41.0 °F - 37.9 °F 89% 30.05 in 6.0 mi Calm Calm - N/A   Overcast
11:54 AM 43.0 °F - 39.0 °F 86% 30.06 in 10.0 mi Calm Calm - N/A   Mostly Cloudy
12:05 PM 45.0 °F - 39.9 °F 82% 30.06 in 10.0 mi Calm Calm - N/A   Scattered Clouds
12:54 PM 50.0 °F - 39.9 °F 68% 30.06 in 10.0 mi North 4.6 mph - N/A   Mostly Cloudy
1:54 PM 51.1 °F - 35.1 °F 54% 30.06 in 10.0 mi Variable 3.5 mph - N/A   Mostly Cloudy
2:54 PM 54.0 °F - 34.0 °F 47% 30.07 in 10.0 mi NNE 6.9 mph - N/A   Scattered Clouds
3:54 PM 55.9 °F - 36.0 °F 47% 30.06 in 10.0 mi North 8.1 mph - N/A   Scattered Clouds
4:54 PM 55.0 °F - 35.1 °F 47% 30.07 in 10.0 mi NE 5.8 mph - N/A   Scattered Clouds
5:54 PM 53.1 °F - 37.0 °F 55% 30.09 in 10.0 mi NNE 5.8 mph - N/A   Scattered Clouds
6:54 PM 54.0 °F - 37.0 °F 53% 30.10 in 10.0 mi NNE 6.9 mph - N/A   Scattered Clouds
7:54 PM 44.1 °F 39.5 °F 39.9 °F 85% 30.13 in 6.0 mi SSW 8.1 mph - 0.06 in Rain Light Rain
8:54 PM 43.0 °F 41.3 °F 39.9 °F 89% 30.16 in 10.0 mi WNW 3.5 mph - 0.00 in   Mostly Cloudy
9:54 PM 41.0 °F - 39.9 °F 96% 30.18 in 10.0 mi Calm Calm - N/A   Partly Cloudy
10:21 PM 39.0 °F - 37.9 °F 96% 30.18 in 1.8 mi Calm Calm - N/A   Partly Cloudy
10:29 PM 39.0 °F - 39.0 °F 100% 30.18 in 1.0 mi Calm Calm - N/A   Mostly Cloudy
10:49 PM 39.2 °F - 39.2 °F 100% 30.18 in 2.0 mi Calm Calm - N/A   Overcast
10:54 PM 39.9 °F - 39.0 °F 97% 30.19 in 6.0 mi Calm Calm - N/A   Overcast
11:54 PM 41.0 °F 39.0 °F 39.0 °F 93% 30.20 in 8.0 mi SSW 3.5 mph - N/A   Mostly Cloudy